Hourly Data Report for June 26, 2017

All times are specified in Local Standard Time (LST). Add 1 hour to adjust for Daylight Saving Time where and when it is observed.

CHATHAM KENT
ONTARIO

42°18'21.000" N
82°04'57.000" W
196.60 m
6131414
YCK

Related Data

No related data is available for this station

Download Data

Hourly Data (June 2017)
Hourly Data Report for June 26, 2017
Temp Definition
°C
Dew Point Temp Definition
°C
Rel Hum Definition
%
Wind Dir Definition
10's deg

Wind Spd Definition
km/h
Visibility Definition
km
Stn Press Definition
kPa
Hmdx Definition


Wind Chill Definition


Weather Definition


TIME
00:00 Legend Double Dagger 12.4 10.8 90 22 5 16.1 99.35     LegendNANA
01:00 Legend Double Dagger 12.6 10.9 89 21 5 16.1 99.31     LegendNANA
02:00 Legend Double Dagger 11.4 9.7 89 23 9 16.1 99.28     LegendNANA
03:00 Legend Double Dagger 11.3 9.1 86 25 11 16.1 99.25     LegendNANA
04:00 Legend Double Dagger 12.8 8.3 74 27 9 16.1 99.27     LegendNANA
05:00 Legend Double Dagger 11.2 8.3 82 23 11 16.1 99.29     LegendNANA
06:00 Legend Double Dagger 12.3 9.1 81 26 11 16.1 99.31     LegendNANA
07:00 Legend Double Dagger 15.6 10.3 70 28 11 16.1 99.32     LegendNANA
08:00 Legend Double Dagger 17.4 11.6 68 28 17 16.1 99.33     LegendNANA
09:00 Legend Double Dagger 18.6 11.3 62 28 24 16.1 99.31     LegendNANA
10:00 Legend Double Dagger 18.8 10.2 57 29 24 16.1 99.32     LegendNANA
11:00 Legend Double Dagger 20.3 8.2 45 30 24 16.1 99.29     LegendNANA
12:00 Legend Double Dagger 20.4 6.8 41 30 26 16.1 99.26     LegendNANA
13:00 Legend Double Dagger 21.0 6.7 39 30 21 16.1 99.24     LegendNANA
14:00 Legend Double Dagger 21.1 6.8 39 29 26 16.1 99.21     LegendNANA
15:00 Legend Double Dagger 21.7 4.1 31 27 24 16.1 99.16     LegendNANA
16:00 Legend Double Dagger 22.3 4.2 30 29 32 16.1 99.11     LegendNANA
17:00 Legend Double Dagger 21.1 2.6 29 29 34 16.1 99.09     LegendNANA
18:00 Legend Double Dagger 20.9 4.3 33 29 28 16.1 99.08     LegendNANA
19:00 Legend Double Dagger 19.6 3.0 33 28 22 16.1 99.09     LegendNANA
20:00 Legend Double Dagger 17.1 5.6 46 29 15 16.1 99.08     LegendNANA
21:00 Legend Double Dagger 14.2 5.9 57 23 9 16.1 99.10     LegendNANA
22:00 Legend Double Dagger 15.5 9.2 66 22 24 16.1 99.11     LegendNANA
23:00 Legend Double Dagger 12.3 9.2 81 35 15 16.1 99.11     Thunderstorms,Rain

Notes on Data Quality.

Legend

  • E = Estimated
  • M = Missing
  • NA = Not Available
  • ‡ = Partner data that is not subject to review by the National Climate Archives
Date modified: